[[{"header":{"parameterUnit":"m.s-1","parameterCategory":1,"la1":30.2991,"la2":30.254,"lo1":-89.0895,"lo2":-89.0444,"dy":0.0017,"dx":0.0017,"nx":28,"ny":28,"refTime":"2025-03-15T03:00:00:Z","depth":0,"parameterNumber":2,"parameterNumberName":"U-component_of_WINDS"},"data":[0,0,0,0,0,0,0,0,0,0,0,0,0,0,0,0,0,0,0,0,0,0,0,0,0,0,0,0,0,0,0,0,0,0,0,0,0,0,0,0,0,0,0,0,0,0,0,0,0,0,0,0,0,0,0,0,0,0,-1.262,-1.2622,0,-1.2749,-1.275,-1.2752,-1.2835,-1.2836,-1.2836,-1.2837,-1.2974,-1.2977,-1.298,0,0,0,0,0,0,0,0,0,0,0,0,0,-1.2452,-1.2455,-1.262,-1.2622,-1.2623,-1.2749,-1.275,-1.2752,-1.2835,-1.2836,-1.2836,-1.2837,-1.2973,-1.2977,-1.2981,0,0,0,0,0,0,0,0,0,0,0,0,0,-1.2547,-1.2456,-1.262,-1.268,-1.2686,-1.2748,-1.275,-1.2753,-1.2835,-1.2836,-1.2837,-1.2837,-1.2972,-1.2976,-1.2981,-1.2995,0,0,-1.2996,-1.2998,0,0,0,0,0,0,0,0,-1.2542,-1.2554,-1.2669,-1.2676,-1.2683,-1.2777,-1.2742,-1.2834,-1.2835,-1.2779,-1.2837,-1.2838,-1.2908,-1.2918,-1.2941,-1.3002,-1.3007,-1.2996,-1.2999,-1.3001,-1.3002,0,0,0,0,0,0,0,-1.2535,-1.2549,-1.2671,-1.2671,-1.2679,-1.2702,-1.2716,-1.276,-1.2838,-1.2784,-1.279,-1.2804,-1.2912,-1.2936,-1.2945,-1.301,-1.2996,-1.3,-1.3003,-1.3005,-1.309,-1.309,0,0,0,0,0,0,-1.2518,-1.2542,-1.2667,-1.2675,-1.2613,-1.2704,-1.2721,-1.2746,-1.2837,-1.2852,-1.2803,-1.2807,-1.2927,-1.2939,-1.295,-1.2973,-1.3001,-1.3005,-1.3008,-1.3091,-1.309,-1.309,0,0,0,0,0,0,-1.2514,-1.2529,-1.2662,-1.2611,-1.2629,-1.2706,-1.2734,-1.2748,-1.2772,-1.2852,-1.2867,-1.2813,-1.2928,-1.2943,-1.2983,-1.2979,-1.3008,-1.3012,-1.3092,-1.3091,-1.309,-1.3019,0,0,0,0,0,0,-1.2509,-1.2527,-1.2531,-1.261,-1.2632,-1.2691,-1.2734,-1.275,-1.2779,-1.2786,-1.2865,-1.2879,-1.293,-1.2976,-1.2988,-1.2986,-1.3016,-1.3092,-1.3091,-1.309,-1.3022,-1.3016,-1.3011,0,0,0,0,0,-1.2503,-1.2507,-1.2531,-1.2546,-1.2639,-1.2691,-1.2703,-1.2761,-1.2779,-1.2785,-1.2837,-1.2876,-1.2977,-1.2979,-1.2994,-1.2993,-1.3093,-1.3092,-1.309,-1.3025,-1.3017,-1.3011,0,0,0,0,0,0,-1.2428,-1.2519,-1.2546,-1.2576,-1.2624,-1.2704,-1.2714,-1.2751,-1.2797,-1.2801,-1.2873,-1.289,-1.2923,-1.2963,-1.2963,-1.3013,-1.304,-1.3042,-1.2985,-1.2979,-1.2973,-1.2963,-1.302,0,0,0,0,0,-1.2414,-1.2447,-1.2526,-1.2544,-1.2567,-1.2636,-1.2661,-1.2701,-1.2755,-1.2777,-1.2832,-1.2884,-1.2929,-1.2956,-1.3001,-1.3029,-1.3048,-1.3036,-1.303,-1.3025,-1.3025,-1.3044,-1.304,-1.3085,-1.3085,-1.3085,0,0,-1.2388,-1.2441,-1.2458,-1.253,-1.2573,-1.2607,-1.2653,-1.2687,-1.2714,-1.2783,-1.2824,-1.2866,-1.293,-1.2964,-1.2982,-1.2998,-1.3017,-1.3023,-1.3018,-1.3022,-1.3042,-1.3038,-1.3034,-1.3084,-1.3085,-1.3085,0,0,-1.2356,-1.2399,-1.242,-1.2462,-1.2525,-1.2571,-1.2576,-1.2651,-1.268,-1.2722,-1.2775,-1.2809,-1.2883,-1.2926,-1.2958,-1.2944,-1.2983,-1.2957,-1.2927,-1.2944,-1.2941,-1.2938,-1.2934,-1.2931,-1.2957,-1.2957,-1.2957,0,-1.2316,-1.2367,-1.2426,-1.2457,-1.2488,-1.2551,-1.2573,-1.2611,-1.2687,-1.2708,-1.2724,-1.2818,-1.2866,-1.2912,-1.2908,-1.2932,-1.2941,-1.2948,-1.2936,-1.2934,-1.2932,-1.2929,-1.2927,-1.2953,-1.2954,-1.2954,-1.2955,0,-1.2314,-1.2349,-1.2359,-1.2428,-1.246,-1.2487,-1.2552,-1.2578,-1.2615,-1.266,-1.2703,-1.2762,-1.282,-1.2834,-1.2872,-1.2886,-1.2894,-1.2922,-1.2951,-1.2923,-1.2922,-1.2921,-1.2948,-1.295,-1.2951,-1.2952,0,0,-1.2239,-1.234,-1.2343,-1.2376,-1.245,-1.248,-1.251,-1.2565,-1.2587,-1.2637,-1.2665,-1.2727,-1.2753,-1.2789,-1.2833,-1.2848,-1.2834,-1.2875,-1.2878,-1.2866,-1.2855,-1.2833,-1.2831,-1.286,-1.286,-1.286,-1.285,0,-1.2219,-1.2274,-1.2329,-1.2365,-1.2399,-1.246,-1.2486,-1.2536,-1.2579,-1.2616,-1.2665,-1.2707,-1.2739,-1.2761,-1.2779,-1.2832,-1.2833,-1.2834,-1.2889,-1.289,-1.2871,-1.283,-1.2807,-1.2794,-1.2849,-1.2849,-1.2849,0,-1.2203,-1.2249,-1.2288,-1.236,-1.2377,-1.2399,-1.2455,-1.2488,-1.2547,-1.2578,-1.2618,-1.2663,-1.2701,-1.2725,-1.2779,-1.2777,-1.2804,-1.2834,-1.2835,-1.2842,-1.2868,-1.2837,-1.2791,-1.2789,-1.2849,-1.2849,-1.2849,0,-1.2145,-1.2217,-1.2249,-1.2275,-1.236,-1.2375,-1.2411,-1.2471,-1.25,-1.255,-1.257,-1.2624,-1.2654,-1.2695,-1.2755,-1.2767,-1.2802,-1.2832,-1.283,-1.2829,-1.2835,-1.2834,-1.2793,-1.2851,-1.2851,-1.2851,-1.2851,0,-1.2117,-1.2139,-1.2224,-1.2244,-1.2271,-1.2335,-1.2361,-1.2403,-1.2455,-1.2486,-1.2543,-1.2571,-1.2648,-1.2686,-1.2734,-1.2771,-1.2784,-1.2811,-1.2824,-1.2806,-1.2803,-1.2825,-1.2828,-1.2851,-1.2851,-1.2851,-1.2851,0,-1.2057,-1.2115,-1.2155,-1.2231,-1.2251,-1.2267,-1.2334,-1.2358,-1.2404,-1.2442,-1.2455,-1.2529,-1.2577,-1.264,-1.2709,-1.2741,-1.2773,-1.2792,-1.2752,-1.276,-1.2754,-1.2754,-1.2727,-1.2727,-1.2783,-1.2783,-1.2782,0,-1.2036,-1.2054,-1.2132,-1.2155,-1.2189,-1.2227,-1.2258,-1.2322,-1.2352,-1.242,-1.2435,-1.2487,-1.2532,-1.2607,-1.2668,-1.2721,-1.2742,-1.2729,-1.2751,-1.2733,-1.2743,-1.2741,-1.2744,-1.2723,-1.2723,-1.2722,-1.2721,0,-1.1992,-1.202,-1.206,-1.2111,-1.2145,-1.2188,-1.2235,-1.2252,-1.2326,-1.2357,-1.2406,-1.244,-1.251,-1.2562,-1.2623,-1.2663,-1.2705,-1.2714,-1.2716,-1.2699,-1.2675,-1.2689,-1.2738,-1.2714,-1.2715,-1.2715,-1.2716,-1.2716,-1.1951,-1.197,-1.2028,-1.2072,-1.2113,-1.2155,-1.218,-1.2229,-1.227,-1.233,-1.2366,-1.2413,-1.2474,-1.256,-1.2598,-1.2638,-1.2655,-1.2658,-1.2659,-1.2659,-1.2654,-1.2668,-1.265,-1.265,-1.265,-1.2651,-1.2651,0,-1.1911,-1.1951,-1.199,-1.2052,-1.2087,-1.2121,-1.2175,-1.2202,-1.2242,-1.2294,-1.2336,-1.2393,-1.2444,-1.2508,-1.2564,-1.2583,-1.2604,-1.2596,-1.2596,-1.2604,-1.2636,-1.2628,-1.2578,-1.2578,-1.2578,-1.2578,-1.2578,-1.2578,-1.1894,-1.1928,-1.1963,-1.2018,-1.2059,-1.2104,-1.2132,-1.2172,-1.2213,-1.2273,-1.2314,-1.2355,-1.2413,-1.2473,-1.2522,-1.254,-1.2558,-1.2544,-1.2568,-1.2596,-1.2602,-1.2608,-1.2602,-1.2547,-1.2547,-1.2534,-1.2534,-1.2533]},{"header":{"parameterUnit":"m.s-1","parameterCategory":1,"la1":30.2991,"la2":30.254,"lo1":-89.0895,"lo2":-89.0444,"dy":0.0017,"dx":0.0017,"nx":28,"ny":28,"refTime":"2025-03-15T03:00:00:Z","depth":0,"parameterNumber":3,"parameterNumberName":"V-component_of_WINDS"},"data":[0,0,0,0,0,0,0,0,0,0,0,0,0,0,0,0,0,0,0,0,0,0,0,0,0,0,0,0,0,0,0,0,0,0,0,0,0,0,0,0,0,0,0,0,0,0,0,0,0,0,0,0,0,0,0,0,0,0,9.2575,9.2578,0,9.2846,9.2849,9.2852,9.2886,9.2883,9.288,9.2878,9.3157,9.3166,9.3176,0,0,0,0,0,0,0,0,0,0,0,0,0,9.2092,9.2101,9.2575,9.2578,9.2582,9.2846,9.2849,9.2853,9.2886,9.2883,9.288,9.2877,9.3154,9.3165,9.3177,0,0,0,0,0,0,0,0,0,0,0,0,0,9.2326,9.2104,9.2574,9.263,9.2638,9.2845,9.2849,9.2854,9.2887,9.2883,9.2879,9.2875,9.315,9.3164,9.3179,9.3349,0,0,9.3224,9.323,0,0,0,0,0,0,0,0,9.2313,9.2344,9.2619,9.2627,9.2636,9.2828,9.2781,9.302,9.2888,9.2792,9.2878,9.2873,9.3051,9.3073,9.3133,9.3363,9.3374,9.3225,9.3234,9.3241,9.3245,0,0,0,0,0,0,0,9.2297,9.2332,9.2682,9.2623,9.2633,9.2643,9.2672,9.2827,9.294,9.28,9.2803,9.2835,9.3055,9.3119,9.314,9.3379,9.3225,9.3238,9.3247,9.3253,9.3768,9.3773,0,0,0,0,0,0,9.227,9.2319,9.2674,9.269,9.2461,9.2655,9.2688,9.277,9.2939,9.2961,9.2838,9.2835,9.3095,9.3122,9.315,9.3365,9.3241,9.3254,9.3263,9.3763,9.3769,9.3774,0,0,0,0,0,0,9.2259,9.2301,9.2663,9.2506,9.2553,9.2668,9.276,9.2778,9.2842,9.2967,9.2988,9.2882,9.3093,9.3129,9.3301,9.3375,9.3261,9.3275,9.3758,9.3765,9.3772,9.3794,0,0,0,0,0,0,9.2245,9.2297,9.2361,9.2507,9.2561,9.2808,9.2765,9.2786,9.2867,9.2866,9.3014,9.3035,9.3093,9.3279,9.3316,9.3393,9.3286,9.3752,9.3761,9.377,9.3787,9.3801,9.3813,0,0,0,0,0,9.2228,9.2356,9.2364,9.2407,9.2644,9.2812,9.2843,9.2906,9.2873,9.294,9.3022,9.303,9.336,9.3296,9.3338,9.3421,9.3747,9.3758,9.3769,9.3781,9.3798,9.3812,0,0,0,0,0,0,9.2215,9.2376,9.2387,9.2566,9.2675,9.2817,9.2903,9.2921,9.3043,9.3037,9.3111,9.3144,9.3314,9.3385,9.331,9.3598,9.3551,9.3571,9.3546,9.3563,9.3576,9.3556,9.3299,0,0,0,0,0,9.2234,9.2356,9.249,9.2635,9.2689,9.2787,9.2862,9.2902,9.3019,9.3065,9.3159,9.3273,9.3403,9.3486,9.3612,9.3797,9.3832,9.3875,9.3888,9.3898,9.3915,9.4023,9.4045,9.381,9.381,9.3809,0,0,9.2272,9.2375,9.2447,9.2635,9.2724,9.2852,9.2825,9.296,9.3056,9.3086,9.3255,9.3328,9.346,9.364,9.3725,9.3704,9.3988,9.3912,9.3919,9.3931,9.4036,9.4058,9.4078,9.3817,9.3816,9.3815,0,0,9.2408,9.2496,9.2629,9.272,9.2857,9.2922,9.2954,9.3095,9.3145,9.3316,9.3342,9.3458,9.3679,9.3774,9.385,9.4028,9.4042,9.4067,9.4134,9.4239,9.4257,9.4274,9.4341,9.4364,9.4083,9.4083,9.4083,0,9.2439,9.2631,9.2695,9.2831,9.2915,9.2948,9.3086,9.3171,9.3341,9.3399,9.3374,9.3656,9.3746,9.3952,9.3996,9.4055,9.4097,9.405,9.4249,9.4267,9.4283,9.4348,9.4373,9.4085,9.4085,9.4084,9.4084,0,9.2664,9.2797,9.2888,9.3054,9.3147,9.3282,9.337,9.3458,9.3491,9.3559,9.3736,9.3846,9.3998,9.4049,9.4081,9.4261,9.4245,9.4233,9.4188,9.4307,9.437,9.4395,9.4088,9.4088,9.4087,9.4086,0,0,9.2798,9.3001,9.3033,9.3111,9.3266,9.3371,9.351,9.3658,9.3734,9.3851,9.3972,9.416,9.4152,9.424,9.4283,9.4375,9.4514,9.4353,9.4357,9.4382,9.4723,9.4733,9.476,9.4524,9.4528,9.4532,9.4714,0,9.2955,9.3202,9.3267,9.3478,9.3604,9.3641,9.3762,9.3872,9.3941,9.4059,9.4135,9.427,9.4246,9.43,9.4392,9.4477,9.4584,9.4464,9.4639,9.4645,9.4607,9.4792,9.4802,9.4967,9.4738,9.4742,9.4745,0,9.3169,9.3293,9.3517,9.3661,9.3716,9.3824,9.3968,9.408,9.4207,9.4251,9.4351,9.4387,9.4537,9.4482,9.4691,9.4609,9.4685,9.4738,9.4746,9.4766,9.4703,9.4821,9.5021,9.5047,9.4783,9.478,9.4778,0,9.3249,9.3472,9.3636,9.3701,9.3871,9.3947,9.4022,9.4144,9.4231,9.4358,9.4416,9.4557,9.4636,9.4746,9.4821,9.4774,9.5025,9.4976,9.5069,9.5067,9.5121,9.5117,9.5339,9.5165,9.5165,9.5164,9.5164,0,9.3418,9.3555,9.3675,9.3776,9.3932,9.4006,9.4159,9.4235,9.4345,9.4464,9.4503,9.4614,9.4705,9.483,9.4889,9.5056,9.509,9.5132,9.5147,9.513,9.5125,9.5182,9.5173,9.5171,9.5169,9.5168,9.5167,0,9.3534,9.3619,9.3801,9.3949,9.3989,9.4098,9.4226,9.4327,9.4398,9.4548,9.4588,9.47,9.4849,9.4935,9.5121,9.5162,9.5348,9.5356,9.5305,9.5313,9.5402,9.5393,9.567,9.5712,9.5507,9.5509,9.551,0,9.3637,9.3743,9.3903,9.3986,9.4062,9.4194,9.4284,9.4363,9.4455,9.461,9.4694,9.4845,9.4971,9.5207,9.5307,9.5451,9.5465,9.5552,9.5487,9.5468,9.5471,9.5465,9.5478,9.5564,9.5565,9.5567,9.5568,0,9.3813,9.3851,9.3978,9.4123,9.4229,9.4346,9.4462,9.4528,9.4627,9.4729,9.4882,9.498,9.5173,9.5324,9.5478,9.5557,9.5581,9.5588,9.5618,9.5603,9.5571,9.5594,9.5339,9.5582,9.558,9.5579,9.5579,9.5578,9.3928,9.4026,9.4156,9.4298,9.4394,9.4503,9.4607,9.4693,9.4822,9.4985,9.5024,9.5186,9.5315,9.5524,9.5608,9.5738,9.5722,9.5764,9.5776,9.5786,9.5791,9.5549,9.5765,9.5765,9.5765,9.5765,9.5764,0,9.4109,9.4195,9.4325,9.4488,9.4601,9.4613,9.4744,9.4839,9.4981,9.5099,9.5223,9.5401,9.555,9.5662,9.5814,9.5897,9.5912,9.5935,9.5931,9.5949,9.5793,9.5754,9.592,9.592,9.592,9.592,9.592,9.592,9.4216,9.4385,9.4439,9.4658,9.4743,9.4903,9.4977,9.5079,9.5175,9.5372,9.5496,9.5568,9.5686,9.5848,9.5986,9.6015,9.6071,9.6092,9.6124,9.5976,9.596,9.5944,9.5907,9.6103,9.6103,9.627,9.6271,9.6272]}]]